{"data":{"norad_id":57085,"epoch":"2026-05-24T22:06:53.775072Z","epoch_age_seconds":92513,"freshness":"FRESH","line1":"1 57085U 23088AP  26144.92145573 -.00001813  00000+0 -56410-4 0  9993","line2":"2 57085  43.0060  25.2148 0001407 269.3688  90.7003 15.27566833162167","mean_motion":15.27566833,"eccentricity":0.0001407,"inclination_deg":43.006,"raan_deg":25.2148,"arg_perigee_deg":269.3688,"mean_anomaly_deg":90.7003,"bstar":-5.641e-5,"rev_number":16216,"period_min":94.267561254389,"perigee_km":482.12314862656,"apogee_km":484.05389748875,"semimajor_km":6861.2255230577,"source":"CELESTRAK","updated_at":"2026-05-25T13:38:18.216462Z"}}